This demonstration page uses our WeatherBlox Daily Observations layout. Learn more.

Left ArrowRight Arrow

39.01783, -85.05884

Hourly Observations for October 26, 2019

Temp ( °F °C ) Dew Point ( °F °C ) Humidity (%) Winds ( mph kmh ) Pressure ( in mb ) Visibility ( mi km ) Precip ( " mm )
12:52 am 00:52 Cloudy 54 12.2 47 8.3 77 77 E 5 7 30.15 1021 10 16 0.00 0.00
1:52 am 01:52 Cloudy 54 12.2 47 8.3 77 77 SSE 7 11 30.14 1021 10 16 0.00 0.00
2:52 am 02:52 Cloudy 54 12.2 47 8.3 77 77 ESE 6 9 30.13 1020 10 16 0.00 0.00
3:52 am 03:52 Cloudy 54 12.2 47 8.3 77 77 ENE 7 11 30.09 1019 10 16 0.00 0.00
4:52 am 04:52 Cloudy with Light Rain 54 12.2 48 8.9 80 80 NE 7 11 30.09 1019 10 16 0.00 0.00
5:52 am 05:52 Cloudy with Light Rain 53 11.7 48 8.9 83 83 ENE 9 15 30.06 1018 8 13 0.01 0.25
6:41 am 06:41 Cloudy with Light Rain 52 11.1 48 8.9 86 86 E 14 22 30.06 1018 6 10 0.02 0.51
6:52 am 06:52 Cloudy with Light Rain 52 11.1 48 8.9 86 86 E 13 20 30.03 1017 6 10 0.02 0.51
7:52 am 07:52 Cloudy with Heavy Rain 51 10.6 49 9.4 92 92 E 12 19 30.01 1016 3 5 0.07 1.78
8:35 am 08:35 Cloudy with Light Rain 52 11.1 49 9.4 89 89 E 12 19 30.00 1016 3 5 0.05 1.27
8:52 am 08:52 Cloudy with Light Rain 52 11.1 50 10 93 93 E 14 22 29.98 1015 2 3 0.06 1.52
9:13 am 09:13 Cloudy with Heavy Rain 53 11.7 50 10 89 89 E 15 24 30.00 1016 2 2 0.05 1.27
9:52 am 09:52 Cloudy with Rain 53 11.7 51 10.6 93 93 E 16 26 29.97 1015 2 3 0.16 4.06
10:52 am 10:52 Cloudy with Heavy Rain 54 12.2 51 10.6 90 90 E 15 24 29.93 1014 2 3 0.25 6.35
11:10 am 11:10 Cloudy with Light Rain 54 12.2 51 10.6 90 90 E 16 26 29.94 1014 4 6 0.06 1.52
11:52 am 11:52 Cloudy with Light Rain 55 12.8 52 11.1 90 90 E 16 26 29.91 1013 10 16 0.11 2.79
12:52 pm 12:52 Cloudy with Light Rain 55 12.8 53 11.7 93 93 E 12 19 29.88 1012 8 13 0.02 0.51
1:52 pm 13:52 Cloudy with Light Rain 57 13.9 54 12.2 90 90 E 13 20 29.82 1010 10 16 0.00 0.00
2:52 pm 14:52 Cloudy with Light Rain 57 13.9 55 12.8 93 93 ESE 12 19 29.76 1008 9 14 0.02 0.51
3:52 pm 15:52 Cloudy with Light Rain 58 14.4 55 12.8 90 90 ESE 12 19 29.73 1007 10 16 0.01 0.25
4:52 pm 16:52 Cloudy with Light Rain 60 15.6 56 13.3 86 86 ESE 18 30 29.69 1005 7 11 0.06 1.52
5:52 pm 17:52 Cloudy with Light Rain 61 16.1 57 13.9 87 87 ESE 16 26 29.65 1004 6 10 0.04 1.02
6:52 pm 18:52 Cloudy 61 16.1 58 14.4 90 90 SE 21 33 29.63 1003 10 16 0.01 0.25
7:52 pm 19:52 Cloudy with Drizzle 62 16.7 59 15 90 90 SE 16 26 29.61 1003 8 13 0.00 0.00
8:52 pm 20:52 Cloudy with Light Rain 63 17.2 60 15.6 90 90 SE 13 20 29.59 1002 5 8 0.11 2.79
9:20 pm 21:20 Cloudy 64 17.8 60 15.6 87 87 SSE 17 28 29.56 1001 10 16 0.00 0.00
9:52 pm 21:52 Cloudy with Heavy Rain 64 17.8 61 16.1 90 90 SSE 16 26 29.58 1002 3 4 0.08 2.03
9:59 pm 21:59 Cloudy with Rain 64 17.8 61 16.1 90 90 S 16 26 29.56 1001 7 11 0.02 0.51
10:52 pm 22:52 Cloudy 64 17.8 61 16.1 90 90 S 13 20 29.57 1001 10 16 0.03 0.76
11:13 pm 23:13 Cloudy with Light Rain 65 18.3 62 16.7 90 90 S 17 28 29.56 1001 10 16 0.00 0.00
11:52 pm 23:52 Cloudy 65 18.3 61 16.1 87 87 SW 12 19 29.61 1003 10 16 0.00 0.00

Powered by AerisWeather